Regional Weather Roundup
Issued by NWS Bismarck, ND

Home | Current Version | Previous Version | Text Only | Print | Product List | Glossary On
Versions: 1 2 3 4 5 6 7 8 9 10 11 12 13 14 15 16 17 18 19 20 21 22 23 24 25 26 27 28 29 30 31 32 33 34 35 36 37 38 39 40 41 42 43 44 45 46 47 48 49 50
000
ASUS43 KBIS 050110
RWRBIS

NWR BROADCAST TEXT
NATIONAL WEATHER SERVICE BISMARCK ND
800 PM CDT FRI SEP 04 2015

NOTE: "FAIR" INDICATES FEW OR NO CLOUDS BELOW 12,000 FEET WITH NO
SIGNIFICANT WEATHER AND/OR OBSTRUCTIONS TO VISIBILITY.


CITY           SKY/WX    TMP DP  RH WIND       PRES   REMARKS
WILLISTON      PTCLDY    71  57  61 NE13      29.88R
MINOT          CLOUDY    66  57  72 N14       29.87R
MINOT AFB      CLOUDY    65  62  87 N15       29.87R
BISMARCK       CLEAR     81  67  62 E5        29.79R
DICKINSON      CLEAR     73  62  68 NE18      29.83R
GARRISON         N/A     69  60  73 N8        29.86R
HETTINGER ARPT CLEAR     84  54  35 E7        29.81R
JAMESTOWN      CLEAR     75  69  81 SE12      29.82S
CROSBY         CLOUDY    64  52  63 NE14      29.92R
HARVEY         FAIR      75  70  83 NE6       29.83R
HAZEN          FAIR      73  63  68 NE14      29.84R
LINTON         FAIR      82  64  54 SE6       29.80R
OAKES            N/A     77  77 100 SE7       29.81R
RUGBY          CLOUDY    66  66 100 NE16      29.86R
STANLEY        CLOUDY    61  61 100 NE10G16   29.91R
$$

CITY           SKY/WX    TMP DP  RH WIND       PRES   REMARKS
GRAND FORKS    MOCLDY    74  68  81 S5        29.82R
GRAND FORKS AF MOCLDY    70  67  89 S1        29.84R
DEVILS LAKE    PTCLDY    72  63  73 NE3       29.83R
FARGO          CLOUDY    76  73  91 E6        29.82S
CAVALIER       FAIR      66  64  94 CALM      29.86R
GRAFTON        FAIR      68  68 100 SE3       29.84R
GWINNER          N/A     79  79 100 SE7       29.82R
LANGDON        FAIR      68  64  88 NW5       29.89R
ROLLA          CLOUDY    63  63 100 N9        29.90F
WALHALLA       FAIR      68  68 100 MISG      29.86S
$$

CITY           SKY/WX    TMP DP  RH WIND       PRES   REMARKS
ABERDEEN       PTCLDY    79  70  74 SE7       29.79R
MOBRIDGE       CLEAR     83  73  72 E9        29.76R
BUFFALO          N/A     79  63  57 N13       29.76R
RAPID CITY     MOCLDY    83  58  42 VRB6      29.79R
GLASGOW        CLOUDY    67  49  52 N18G28    29.91R
SIDNEY         CLOUDY    73  57  56 N7          N/A
WOLF POINT     CLOUDY    71  51  49 NE14G20   29.90R
GLENDIVE       PTCLDY    70  57  64 NE3       29.87R
MILES CITY     CLEAR     71  57  61 NE14      29.85R
BAKER          CLEAR     73  60  63 NE13      29.86R
$$

CITY           SKY/WX    TMP DP  RH WIND       PRES   REMARKS
BILLINGS       MOCLDY    65  45  48 N17       29.92R
GREAT FALLS    CLOUDY    50  48  93 N8        30.01R
REGINA         MOCLDY    57  46  67 NW16G22   30.03R
ESTEVAN        CLOUDY    63  52  67 NE13G21   29.93R
$$



USA.gov is the U.S. government's official web portal to all federal, state and local government web resources and services.